Regional Weather Roundup
Issued by NWS Green Bay, WI

Home | Current Version | Previous Version | Text Only | Print | Product List | Glossary On
Versions: 1 2 3 4 5 6 7 8 9 10 11 12 13 14 15 16 17 18 19 20 21 22 23 24 25 26 27 28 29 30 31 32 33 34 35 36 37 38 39 40 41 42 43 44 45 46 47 48 49 50
687
ASUS43 KGRB 260911
RWRGRB

NORTH-CENTRAL AND NORTHEAST WISCONSIN REGIONAL WEATHER ROUNDUP
NATIONAL WEATHER SERVICE GREEN BAY WI
300 AM CST SUN FEB 26 2017

WIZ005-009-010>012-018-019-261000-
NORTH CENTRAL WISCONSIN

CITY           SKY/WX    TMP DP  RH WIND       PRES   REMARKS
IRONWOOD       LGT SNOW  22  18  85 SW10      29.69F FOG
MANITOWISH WTR CLOUDY    19  13  79 S13       29.70F WCI   6
ARBOR VITAE    CLOUDY    19  13  75 SW7         N/A
EAGLE RIVER    CLOUDY    18  11  74 SW7       29.73F WCI   8
LAND O LAKES   CLOUDY    18  14  84 SW7       29.74F WCI   9
RHINELANDER    CLOUDY    18  12  77 SW8       29.76F WCI   8
PHILLIPS       CLOUDY    18  13  80 SW10      29.74F WCI   6
ANTIGO         CLOUDY    17  14  88 SW13      29.81F WCI   3
TOMAHAWK       CLOUDY    18  11  75 S5        29.78F
MERRILL        NOT AVBL
$$

WIZ013-073-261000-
NORTHEAST WISCONSIN

CITY           SKY/WX    TMP DP  RH WIND       PRES   REMARKS
IRON MOUNTAIN  CLOUDY    20  10  65 SW8       29.78F
MARINETTE      CLOUDY    18  11  74 SW8       29.89F WCI   8
OCONTO         CLOUDY    19  11  73 SW7       29.90S WCI   9
$$

WIZ017-030-035>037-045-261000-
CENTRAL WISCONSIN

CITY           SKY/WX    TMP DP  RH WIND       PRES   REMARKS
MEDFORD        FLURRIES  18  13  80 S12       29.77F WCI   6
WAUSAU         CLOUDY    19  13  77 SW8       29.81F WCI   9
MOSINEE        MOCLDY    19  16  86 S10       29.84F WCI   8
MARSHFIELD     LGT SNOW  19  13  77 S6        29.81F
WISC RAPIDS    CLOUDY    21  14  74 S8        29.87F
STEVENS POINT  CLOUDY    18  13  81 SW6       29.86F WCI   9
WAUPACA        CLOUDY    21  16  81 S5        29.90F
SHAWANO        CLOUDY    19  13  74 SW5       29.89S
CLINTONVILLE   LGT SNOW  19  14  79 SW6       29.90S
WAUTOMA        CLOUDY    19  14  81 S6        29.91F
$$

WIZ038-039-048-051-261000-
FOX VALLEY

CITY           SKY/WX    TMP DP  RH WIND       PRES   REMARKS
NWS GREEN BAY  CLOUDY    20  15  81 SW10      29.92S WCI   9
APPLETON       LGT SNOW  21  14  73 SW13      29.90S WCI   9
OSHKOSH        FLURRIES  20  13  74 SW8       29.93S
FOND DU LAC    CLOUDY    20  13  74 SW9       29.94F WCI   9
$$

WIZ022-050-052-261000-
EAST CENTRAL WISCONSIN

CITY           SKY/WX    TMP DP  RH WIND       PRES   REMARKS
EPHRAIM        PTSUNNY   20  16  84 SW5       29.87F
WASHINGTON ISL FAIR      23  17  77 W12G20    29.87S
STURGEON BAY   CLOUDY    19  13  77 SW10      29.90S WCI   7
MANITOWOC      CLOUDY    20  13  74 SW10      29.93F WCI   9
SHEBOYGAN      CLOUDY    19  13  77 SW5       29.94S
$$

LMZ563-521-522-541>543-261000-
LAKESHORE

STATION/POSITION TIME  TEMP    WIND        PRES    VSBY  WAVE
                       AIR SEA DIR/SP/G                  HT/PER
                 (UTC) (F)     (DEG/KT/KT) (MB)    (MI)  (FT/S)
SHEBOYGAN LKSHOR 0900   22     210/ 10/ 11 1015.3R
KEWAUNEE LKSHORE 0848   21     280/ 11/ 15 1012.6F
NORTHPORT PIER   0840   22        CALM     1011.9S
SISTER BAY LKSHO 0835   21        CALM       N/A
MENOMINEE LKSHOR 0848   19     210/ 10/ 13 1011.3F
$$




USA.gov is the U.S. government's official web portal to all federal, state and local government web resources and services.